Weather in Razdzog

Russia / Republic of North Ossetia — Alania     43°21′32″N   44°28′14″E
temp.,
°C
wind,
m/s
gust,
m/s
humid.,
%
clouds,
%
prec.,
mm/h
press.,
hPa
HPBL,
m
27 september, mon
mon2700:00+11s12690 0.0 101812
03:00+10ese11631 0.0 101611
06:00+12sse225899 0.0 101627
09:00+17ne34516 0.0 1015536
12:00+18n535899 0.0 10151431
15:00+15nne4574100 0.1 1015676
18:00+13nnw1275100 0.4 101792
21:00+12sw2282100 0.6 1018117
28 september, tue
tue2800:00+11sw1183100 0.1 101763
03:00+11nne0082100 0.1 101723
06:00+11ese118099 0.0 101716
09:00+13ene237299 0.0 1017426
12:00+15ene446192 0.0 10171185
15:00+15e446286 0.0 1018957
18:00+13e2467100 0.0 1020123
21:00+12ne1170100 0.0 102135
29 september, wed
wed2900:00+11nw117798 0.0 102182
03:00+11n1180100 0.0 102276
06:00+10e1279100 0.0 1022168
09:00+12e3470100 0.0 1022762
12:00+12e456899 0.0 1022892
15:00+12ene4572100 0.0 1022792
18:00+11ene4776100 0.0 1022607
21:00+10ene5983100 0.2 1022609
30 september, thu
thu3000:00+9ne3894100 2.3 1022550
03:00+7ene51092100 7.1 1023545
06:00+7ne3692100 3.9 1025495
09:00+7ne4690100 9.9 1027808
12:00+7ne4590100 4.0 1028917
15:00+6ene4588100 4.7 1028598
18:00+6ene2489100 0.1 1029447
21:00+6e2389100 0.4 1030635
1 october, fri
fri100:00+7e2490100 0.1 1029644
03:00+7e1289100 0.2 1029126
06:00+7ene1292100 0.1 1030174
09:00+7ene3590100 0.4 1030477
12:00+7ene4885100 0.1 1031638
15:00+7ene3684100 0.3 1030570
18:00+7ene2488100 0.0 1031256
21:00+7ene2590100 0.1 1031377